User: anonymous   Login
Location: Caltech
(34.1382°N, 118.1253°W)
Time: 00:04:24
(UTC-07:00)
Language:

Courier 1B - Orbit

View from above orbital plane
View from above orbital plane
View from above satellite
View from above satellite

Ground track
Ground track

The orbit data is extracted from the following two-line orbital elements,

1 00058U 60013A   16176.48719260  .00000113  00000-0  39731-4 0  9993
2 00058  28.3286 270.8860 0165035 271.9099  86.2552 13.46303289743069
Epoch (UTC): 24 June 2016 11:41:33
Eccentricity: 0.0165035
inclination: 28.3286°
perigee height: 963 km
apogee height: 1209 km
right ascension of ascending node: 270.8860°
argument of perigee: 271.9099°
revolutions per day: 13.46303289
mean anomaly at epoch: 86.2552°
orbit number at epoch: 74306

The dashed part of the orbit path shows where the satellite is in the earth's shadow,  

DLR